{"data":{"norad_id":58637,"epoch":"2026-09-20T09:05:03.127488Z","epoch_age_seconds":160239,"freshness":"FRESH","line1":"1 58637U 23203V   26263.37850842 -.00000287  00000+0 -91977-6 0  9992","line2":"2 58637  43.0035  47.8431 0000891 267.2139  92.8610 15.27577116154560","mean_motion":15.27577116,"eccentricity":8.91e-5,"inclination_deg":43.0035,"raan_deg":47.8431,"arg_perigee_deg":267.2139,"mean_anomaly_deg":92.861,"bstar":-9.1977e-7,"rev_number":15456,"period_min":94.266926685225,"perigee_km":482.44639933615,"apogee_km":483.66906423736,"semimajor_km":6861.1947317868,"source":"CELESTRAK","updated_at":"2026-09-21T09:00:33.940975Z"}}